Powrót do katalogu

FENGYUN 1C DEB

AktywnySSO
NORAD 30689·DEBRIS·🇨🇳 China

Wystrzelony May 10, 1999 z Taiyuan Satellite Launch Center

Loading…

Następne Przeloty (najbliższe 24 godziny)

TLE

ŚwieżeSource: Space-Track

Epoka: Sep 14, 2026, 11:07 UTC

1 30689U 99025AQX 26257.46379846  .00000467  00000-0  26180-3 0  9997
2 30689  98.7338 241.2374 0111209  40.0718 110.5982 14.12158042  7734

Śledź FENGYUN 1C DEB w czasie rzeczywistym z AllMySat

Download on the App Store